Location: Cubitt Town
(51.4833°N, 0.0000°E)
Time: 23:29:59
(UTC+00:00)

NOSS 8 (H) - Pass Details

Date: 15 May 2026
Orbit: 357 x 1496 km, 63.3° (Epoch: 10 June)

Event Time Altitude Azimuth Distance (km) Brightness Sun altitude
Rises 23:14:18 0° 315° (NW) 2,198 8.8 -18.9°
Reaches altitude 10° 23:16:14 10° 317° (NW) 1,348 7.6 -18.9°
Maximum altitude 23:19:06 81° 43° (NE) 387 4.0 -19.0°
Enters shadow 23:19:10 81° 70° (ENE) 389 4.0 -19.0°
